Вернуться в каталог

STARLINK-30907

АктивенСвязьVLEO
NORAD 58352·PAYLOAD·🇺🇸 United States

Запущен Nov 18, 2023 с Cape Canaveral Space Force Station

Loading…

Ближайшие Пролёты (ближайшие 24 часа)

TLE

СвежийSource: CelesTrak SupGP

Эпоха: Sep 15, 2026, 03:07 UTC

1 58352C 23177B   26258.13034722  .00038962  00000+0  14110-2 0  2582
2 58352  43.0035   0.4995 0001568 268.1324  58.1206 15.27563281    16

Отслеживайте STARLINK-30907 в реальном времени с AllMySat

Download on the App Store